Location: Atherton
(17.2661°S, 145.4859°E)
Time: 23:35:43
(UTC+10:00)

Vanguard 1 - Pass Details

Date: 29 June 2025
Orbit: 649 x 3822 km, 34.2° (Epoch: 17 July)

Event Time Altitude Azimuth Distance (km) Brightness Sun altitude
Rises 22:26:30 0° 242° (WSW) 5,833 14.3 -62.4°
Enters shadow 22:31:29 - 232° (SW) 4,327 13.5 -63.5°
Reaches altitude 10° 22:31:51 10° 231° (SW) 4,215 - -63.6°
Maximum altitude 22:40:02 26° 178° (S) 2,239 - -65.5°
Drops below altitude 10° 22:45:20 10° 121° (ESE) 2,653 - -66.7°
Sets 22:47:52 0° 107° (ESE) 3,353 - -67.2°
